Istanbul, Turkey

2:52 AM EEST on August 29, 2016 (GMT +0300)
Ataturk

Weather History for LTBA - December, 2014

Change the Weather History Date:

Friday, December 5, 2014

  Actual Average Record
Temperature  
Mean Temperature 51 °F -  
Max Temperature 54 °F 48 °F 68 °F (2010)
Min Temperature 48 °F 40 °F 37 °F (2003)
Degree Days  
Heating Degree Days 14    
Growing Degree Days 1 (Base 50)    
Moisture  
Dew Point 48 °F    
Average Humidity 90    
Maximum Humidity 94    
Minimum Humidity 83    
Precipitation  
Precipitation 0.04 in - - ()
Sea Level Pressure  
Sea Level Pressure 30.18 in    
Wind  
Wind Speed 11 mph ()    
Max Wind Speed 16 mph    
Max Gust Speed -    
Visibility 4.9 miles    
Events Rain    
Averages and records for this station are not official NWS values.
T = Trace of Precipitation, MM = Missing Value Source: Averaged Metar Reports

Daily Weather History Graph

Daily Weather History Graph

Search for Another Location

Airport or City:

Trip Planner

Search our weather history database for the weather conditions in past years. The results will help you decide how hot, cold, wet, or windy it might be!

Date:

Astronomy

Dec. 05, 2014 Rise Set
Actual Time 7:13 AM EET 4:36 PM EET
Civil Twilight 6:43 AM EET 5:07 PM EET
Nautical Twilight 6:08 AM EET 5:41 PM EET
Astronomical Twilight 5:35 AM EET 6:14 PM EET
Moon 4:09 PM EET (12/5) 5:46 AM EET (12/5)
Length of Visible Light 10h 24m
Length of Day
9h 22m
Waxing Gibbous, 99% of the Moon is Illuminated
Dec 5
Waxing Gibbous
Dec 6
Full
Dec 14
Last Quarter
Dec 22
New
Dec 28
First Quarter

Hourly Weather History & Observations

Time (EET) Temp. Dew Point Humidity Pressure Visibility Wind Dir Wind Speed Gust Speed Precip Events Conditions
12:20 AM 51.8 °F 50.0 °F 94% 30.12 in 6.2 mi NNW 12.7 mph - N/A   Mostly Cloudy
12:50 AM 51.8 °F 50.0 °F 94% 30.15 in 6.2 mi NNW 13.8 mph - N/A   Mostly Cloudy
1:20 AM 51.8 °F 48.2 °F 88% 30.15 in 6.2 mi North 15.0 mph - N/A   Mostly Cloudy
1:50 AM 50.0 °F 48.2 °F 94% 30.15 in 6.2 mi NNW 16.1 mph - N/A   Mostly Cloudy
2:00 AM 50 °F 48 °F 92% 30.17 in 6 mi NNW 16.1 mph - -   Mostly Cloudy
2:20 AM 50.0 °F 48.2 °F 94% 30.15 in 6.2 mi North 16.1 mph - N/A   Mostly Cloudy
2:50 AM 50.0 °F 48.2 °F 94% 30.15 in 6.2 mi North 16.1 mph - N/A   Mostly Cloudy
3:20 AM 50.0 °F 48.2 °F 94% 30.15 in 5.0 mi North 13.8 mph - N/A   Mostly Cloudy
3:50 AM 48.2 °F 46.4 °F 93% 30.15 in 5.0 mi North 16.1 mph - N/A   Mostly Cloudy
4:20 AM 48.2 °F 46.4 °F 93% 30.15 in 6.2 mi North 16.1 mph - N/A   Mostly Cloudy
4:50 AM 48.2 °F 46.4 °F 93% 30.15 in 6.2 mi North 16.1 mph - N/A   Mostly Cloudy
5:00 AM 48 °F 46 °F 92% 30.30 in 6 mi North 16.1 mph - -   Mist
5:20 AM 48.2 °F 46.4 °F 93% 30.18 in 6.2 mi North 15.0 mph - N/A   Mostly Cloudy
5:50 AM 48.2 °F 46.4 °F 93% 30.18 in 6.2 mi North 15.0 mph - N/A   Mostly Cloudy
6:20 AM 48.2 °F 46.4 °F 93% 30.18 in 6.2 mi North 15.0 mph - N/A   Mostly Cloudy
6:50 AM 48.2 °F 46.4 °F 93% 30.18 in 6.2 mi North 15.0 mph - N/A   Mostly Cloudy
7:20 AM 48.2 °F 46.4 °F 93% 30.18 in 6.2 mi North 13.8 mph - N/A   Mostly Cloudy
7:50 AM 50.0 °F 46.4 °F 87% 30.18 in 6.2 mi North 12.7 mph - N/A   Mostly Cloudy
8:00 AM 49 °F 46 °F 87% 30.21 in 6 mi North 12.7 mph - -   Mostly Cloudy
8:05 AM 50.0 °F 46.4 °F 87% 30.18 in 6.2 mi North 10.4 mph - N/A Rain Light Rain Showers
8:20 AM 50.0 °F 46.4 °F 87% 30.18 in 4.3 mi North 10.4 mph - N/A Rain Light Rain Showers
8:50 AM 48.2 °F 46.4 °F 93% 30.21 in 6.2 mi North 12.7 mph - N/A Rain Light Rain Showers
9:20 AM 50.0 °F 46.4 °F 87% 30.21 in 6.2 mi North 10.4 mph - N/A Rain Light Rain Showers
9:50 AM 50.0 °F 46.4 °F 87% 30.21 in 6.2 mi North 11.5 mph - N/A Rain Light Rain Showers
10:20 AM 50.0 °F 46.4 °F 87% 30.21 in 3.7 mi North 9.2 mph - N/A   Mostly Cloudy
10:50 AM 50.0 °F 48.2 °F 94% 30.21 in 3.7 mi NNW 8.1 mph - N/A   Mostly Cloudy
11:00 AM 50 °F 47 °F 86% 30.23 in 4 mi NNW 8.1 mph - -   Partly Cloudy
11:20 AM 51.8 °F 48.2 °F 88% 30.21 in - NNW 9.2 mph - N/A   Mostly Cloudy
11:50 AM 50.0 °F 48.2 °F 94% 30.21 in 3.1 mi NNW 9.2 mph - N/A   Mostly Cloudy
12:20 PM 51.8 °F 48.2 °F 88% 30.21 in 3.7 mi NNW 6.9 mph - N/A   Mostly Cloudy
12:50 PM 51.8 °F 48.2 °F 88% 30.18 in 3.7 mi NNW 6.9 mph - N/A   Mostly Cloudy
1:20 PM 51.8 °F 48.2 °F 88% 30.18 in 3.7 mi NNW 5.8 mph - N/A   Mostly Cloudy
1:50 PM 51.8 °F 48.2 °F 88% 30.18 in - North 6.9 mph - N/A   Mostly Cloudy
2:00 PM 51 °F 49 °F 89% 30.19 in 3 mi North 6.9 mph - -   Mist
2:20 PM 51.8 °F 50.0 °F 94% 30.18 in - NNW 5.8 mph - N/A   Mostly Cloudy
2:50 PM 53.6 °F 50.0 °F 88% 30.18 in 5.0 mi NNW 5.8 mph - N/A   Mostly Cloudy
3:20 PM 53.6 °F 50.0 °F 88% 30.18 in 5.0 mi NNW 6.9 mph - N/A   Mostly Cloudy
3:50 PM 53.6 °F 50.0 °F 88% 30.18 in 4.3 mi NNW 4.6 mph - N/A   Mostly Cloudy
4:20 PM 53.6 °F 50.0 °F 88% 30.18 in 3.7 mi NNW 4.6 mph - N/A   Mostly Cloudy
4:50 PM 51.8 °F 50.0 °F 94% 30.18 in 4.3 mi NNW 5.8 mph - N/A   Mostly Cloudy
5:00 PM 53 °F 49 °F 83% 30.20 in 4 mi NNW 5.8 mph - -   Mist
5:20 PM 51.8 °F 50.0 °F 94% 30.18 in 3.7 mi NNW 6.9 mph - N/A   Mostly Cloudy
5:50 PM 53.6 °F 50.0 °F 88% 30.18 in 4.3 mi NNE 8.1 mph - N/A   Mostly Cloudy
6:20 PM 53.6 °F 50.0 °F 88% 30.18 in 5.0 mi North 5.8 mph - N/A   Mostly Cloudy
6:50 PM 51.8 °F 50.0 °F 94% 30.18 in 4.3 mi North 6.9 mph - N/A   Mostly Cloudy
7:20 PM 51.8 °F 50.0 °F 94% 30.18 in 6.2 mi NNW 8.1 mph - N/A   Mostly Cloudy
7:50 PM 51.8 °F 50.0 °F 94% 30.18 in 4.3 mi NNW 9.2 mph - N/A   Mostly Cloudy
8:00 PM 52 °F 50 °F 89% 30.19 in 4 mi NNW 9.2 mph - -   Mist
8:20 PM 51.8 °F 50.0 °F 94% 30.18 in 3.7 mi NNW 9.2 mph - N/A   Mostly Cloudy
8:50 PM 51.8 °F 50.0 °F 94% 30.18 in 3.7 mi NNW 6.9 mph - N/A   Mostly Cloudy
9:20 PM 53.6 °F 50.0 °F 88% 30.18 in 4.3 mi North 6.9 mph - N/A   Mostly Cloudy
9:50 PM 53.6 °F 50.0 °F 88% 30.15 in 4.3 mi NNE 6.9 mph - N/A   Mostly Cloudy
10:20 PM 53.6 °F 50.0 °F 88% 30.15 in 3.7 mi North 3.5 mph - N/A   Mostly Cloudy
10:50 PM 53.6 °F 50.0 °F 88% 30.15 in 3.7 mi North 5.8 mph - N/A   Mostly Cloudy
11:00 PM 54 °F 51 °F 84% 30.17 in 4 mi North 5.8 mph - -   Mist
11:20 PM 53.6 °F 50.0 °F 88% 30.15 in 3.7 mi North 6.9 mph - N/A   Mostly Cloudy
11:50 PM 53.6 °F 50.0 °F 88% 30.15 in 4.3 mi North 5.8 mph - N/A   Mostly Cloudy